Riverton, WY

2:10 PM MST on February 20, 2017 (GMT -0700)
Thermopolis

Weather History for KTBX - October, 2013

Change the Weather History Date:

Sunday, October 13, 2013

  Actual Average (KRIW) Record (KRIW)
Temperature  
Mean Temperature 34 °F -  
Max Temperature 39 °F 63 °F 78 °F (1996)
Min Temperature 30 °F 29 °F 11 °F (1969)
Degree Days  
Heating Degree Days 30    
Moisture  
Dew Point 29 °F    
Average Humidity 86    
Maximum Humidity 100    
Minimum Humidity 65    
Precipitation  
Precipitation 0.00 in - - ()
Sea Level Pressure  
Sea Level Pressure 30.15 in    
Wind  
Wind Speed 11 mph (NNW)    
Max Wind Speed 25 mph    
Max Gust Speed 18 mph    
Visibility 8 miles    
Events Snow    
Averages and records for this station are not official NWS values.
T = Trace of Precipitation, MM = Missing Value Source: NWS Daily Summary

Daily Weather History Graph

Daily Weather History Graph

Search for Another Location

Airport or City:

Trip Planner

Search our weather history database for the weather conditions in past years. The results will help you decide how hot, cold, wet, or windy it might be!

Date:

Astronomy

Oct. 13, 2013 Rise Set
Actual Time 7:24 AM MDT 6:32 PM MDT
Civil Twilight 6:56 AM MDT 7:01 PM MDT
Nautical Twilight 6:23 AM MDT 7:34 PM MDT
Astronomical Twilight 5:49 AM MDT 8:07 PM MDT
Moon 3:34 PM MDT (10/13) 1:28 AM MDT (10/13)
Length of Visible Light 12h 05m
Length of Day
11h 07m
Waxing Gibbous, 70% of the Moon is Illuminated
Oct 13
Waxing Gibbous
Oct 18
Full
Oct 26
Last Quarter
Nov 3
New
Nov 9
First Quarter

Hourly Weather History & Observations

Time (MDT) Temp. Windchill Dew Point Humidity Pressure Visibility Wind Dir Wind Speed Gust Speed Precip Events Conditions
12:15 AM 37.4 °F 29.3 °F 26.6 °F 65% 30.18 in 10.0 mi ESE 12.7 mph - N/A   Mostly Cloudy
12:35 AM 37.4 °F 28.5 °F 26.6 °F 65% 30.18 in 10.0 mi SE 15.0 mph - N/A   Scattered Clouds
12:55 AM 37.4 °F 28.5 °F 26.6 °F 65% 30.18 in 10.0 mi ESE 15.0 mph - N/A   Clear
1:15 AM 35.6 °F 26.2 °F 28.4 °F 75% 30.18 in 10.0 mi SE 15.0 mph - N/A   Clear
1:35 AM 35.6 °F 28.0 °F 28.4 °F 75% 30.18 in 10.0 mi ESE 10.4 mph - N/A   Mostly Cloudy
1:55 AM 39.2 °F 35.9 °F 28.4 °F 65% 30.18 in 10.0 mi SE 4.6 mph - N/A   Overcast
2:15 AM 37.4 °F 33.8 °F 28.4 °F 70% 30.19 in 10.0 mi East 4.6 mph - N/A   Overcast
2:35 AM 37.4 °F 34.9 °F 28.4 °F 70% 30.18 in 10.0 mi NE 3.5 mph - N/A   Overcast
2:55 AM 37.4 °F - 26.6 °F 65% 30.18 in 10.0 mi Calm Calm - N/A   Overcast
3:15 AM 37.4 °F 33.8 °F 26.6 °F 65% 30.18 in 10.0 mi North 4.6 mph - N/A   Overcast
3:35 AM 35.6 °F 30.7 °F 26.6 °F 70% 30.18 in 10.0 mi North 5.8 mph - N/A   Overcast
3:55 AM 35.6 °F 30.7 °F 24.8 °F 65% 30.18 in 10.0 mi North 5.8 mph - N/A   Overcast
4:15 AM 35.6 °F 29.9 °F 26.6 °F 70% 30.17 in 10.0 mi NNW 6.9 mph - N/A   Overcast
4:35 AM 35.6 °F 31.7 °F 24.8 °F 65% 30.18 in 10.0 mi North 4.6 mph - N/A   Mostly Cloudy
4:55 AM 35.6 °F 29.2 °F 24.8 °F 65% 30.18 in 10.0 mi NNW 8.1 mph - N/A   Scattered Clouds
5:15 AM 33.8 °F 27.7 °F 24.8 °F 70% 30.17 in 10.0 mi NNW 6.9 mph - N/A   Mostly Cloudy
5:35 AM 33.8 °F 27.7 °F 24.8 °F 70% 30.17 in 10.0 mi North 6.9 mph - N/A   Mostly Cloudy
5:55 AM 33.8 °F 29.6 °F 24.8 °F 70% 30.17 in 10.0 mi NNW 4.6 mph - N/A   Overcast
6:15 AM 32.0 °F 27.5 °F 26.6 °F 80% 30.16 in 10.0 mi NNW 4.6 mph - N/A   Mostly Cloudy
6:35 AM 32.0 °F 26.4 °F 26.6 °F 80% 30.17 in 10.0 mi NNW 5.8 mph - N/A   Scattered Clouds
6:55 AM 32.0 °F 26.4 °F 26.6 °F 80% 30.18 in 10.0 mi NNW 5.8 mph - N/A   Mostly Cloudy
7:15 AM 32.0 °F 26.4 °F 26.6 °F 80% 30.17 in 10.0 mi WNW 5.8 mph - N/A   Mostly Cloudy
7:35 AM 32.0 °F 26.4 °F 26.6 °F 80% 30.16 in 10.0 mi NW 5.8 mph - N/A   Mostly Cloudy
7:55 AM 32.0 °F 26.4 °F 26.6 °F 80% 30.18 in 10.0 mi WNW 5.8 mph - N/A   Overcast
8:15 AM 32.0 °F 24.2 °F 28.4 °F 87% 30.17 in 10.0 mi NW 9.2 mph - N/A Snow Light Snow
8:35 AM 32.0 °F 27.5 °F 28.4 °F 87% 30.18 in 10.0 mi NNW 4.6 mph - N/A   Overcast
8:55 AM 32.0 °F 26.4 °F 28.4 °F 87% 30.18 in 10.0 mi NNW 5.8 mph - N/A   Overcast
9:15 AM 32.0 °F 26.4 °F 28.4 °F 87% 30.18 in 10.0 mi NW 5.8 mph - N/A   Overcast
9:35 AM 32.0 °F 25.6 °F 28.4 °F 87% 30.18 in 10.0 mi NW 6.9 mph - N/A   Overcast
9:55 AM 32.0 °F 25.6 °F 28.4 °F 87% 30.18 in 10.0 mi NNW 6.9 mph - N/A   Overcast
10:15 AM 32.0 °F 25.6 °F 28.4 °F 87% 30.18 in 10.0 mi NNW 6.9 mph - N/A   Overcast
10:35 AM 32.0 °F 24.8 °F 28.4 °F 87% 30.18 in 10.0 mi NNW 8.1 mph - N/A   Overcast
10:55 AM 32.0 °F 24.8 °F 28.4 °F 87% 30.18 in 10.0 mi NNW 8.1 mph - N/A   Mostly Cloudy
11:15 AM 33.8 °F 26.4 °F 28.4 °F 81% 30.17 in 10.0 mi NNW 9.2 mph - N/A   Scattered Clouds
11:35 AM 33.8 °F 26.4 °F 30.2 °F 87% 30.17 in 10.0 mi North 9.2 mph - N/A   Clear
11:55 AM 33.8 °F 25.8 °F 28.4 °F 81% 30.16 in 10.0 mi North 10.4 mph - N/A   Clear
12:15 PM 33.8 °F 25.3 °F 30.2 °F 87% 30.16 in 10.0 mi NNW 11.5 mph - N/A   Scattered Clouds
12:35 PM 35.6 °F 28.6 °F 30.2 °F 81% 30.16 in 10.0 mi North 9.2 mph - N/A   Overcast
12:55 PM 33.8 °F 25.8 °F 30.2 °F 87% 30.15 in 10.0 mi NNW 10.4 mph - N/A   Overcast
1:15 PM 35.6 °F 27.5 °F 30.2 °F 81% 30.15 in 10.0 mi NNW 11.5 mph - N/A   Overcast
1:35 PM 33.8 °F 24.3 °F 30.2 °F 87% 30.14 in 10.0 mi NNW 13.8 mph 18.4 mph N/A   Overcast
1:55 PM 33.8 °F 24.3 °F 32.0 °F 93% 30.13 in 10.0 mi NNW 13.8 mph - N/A   Overcast
2:15 PM 33.8 °F 23.5 °F 32.0 °F 93% 30.13 in 10.0 mi NNW 16.1 mph - N/A   Overcast
2:35 PM 33.8 °F 24.3 °F 32.0 °F 93% 30.12 in 10.0 mi NNW 13.8 mph - N/A   Mostly Cloudy
2:55 PM 33.8 °F 23.5 °F 32.0 °F 93% 30.12 in 10.0 mi NNW 16.1 mph - N/A   Mostly Cloudy
3:15 PM 33.8 °F 23.9 °F 32.0 °F 93% 30.12 in 10.0 mi NNW 15.0 mph - N/A   Mostly Cloudy
3:35 PM 33.8 °F 24.3 °F 32.0 °F 93% 30.12 in 10.0 mi NNW 13.8 mph - N/A   Overcast
3:55 PM 33.8 °F 24.8 °F 32.0 °F 93% 30.12 in 10.0 mi NNW 12.7 mph - N/A   Overcast
4:15 PM 33.8 °F 23.5 °F 32.0 °F 93% 30.11 in 10.0 mi NNW 16.1 mph - N/A   Overcast
4:35 PM 33.8 °F 23.5 °F 32.0 °F 93% 30.11 in 10.0 mi NNW 16.1 mph - N/A   Overcast
4:55 PM 33.8 °F 23.2 °F 32.0 °F 93% 30.10 in 10.0 mi NNW 17.3 mph - N/A   Overcast
5:15 PM 33.8 °F 22.8 °F 32.0 °F 93% 30.10 in 10.0 mi NNW 18.4 mph - N/A   Overcast
5:35 PM 33.8 °F 22.5 °F 32.0 °F 93% 30.11 in 10.0 mi NW 19.6 mph - N/A   Overcast
5:55 PM 33.8 °F 22.8 °F 32.0 °F 93% 30.10 in 10.0 mi NNW 18.4 mph - N/A   Overcast
6:15 PM 32.0 °F 20.1 °F 32.0 °F 100% 30.11 in 10.0 mi NNW 19.6 mph - N/A   Overcast
6:35 PM 32.0 °F 20.1 °F 32.0 °F 100% 30.11 in 10.0 mi NNW 19.6 mph - N/A   Overcast
6:55 PM 32.0 °F 19.8 °F 32.0 °F 100% 30.12 in 0.2 mi NW 20.7 mph - N/A Snow Light Snow
7:15 PM 32.0 °F 21.2 °F 32.0 °F 100% 30.12 in 0.2 mi NNW 16.1 mph - N/A Snow Light Snow
7:35 PM 32.0 °F 20.5 °F 32.0 °F 100% 30.13 in 0.2 mi NNW 18.4 mph - N/A Snow Snow
7:55 PM 32.0 °F 20.5 °F 32.0 °F 100% 30.12 in 0.2 mi NNW 18.4 mph - N/A Snow Snow
8:15 PM 32.0 °F 20.1 °F 32.0 °F 100% 30.12 in 0.2 mi NNW 19.6 mph - N/A Snow Light Snow
8:35 PM 32.0 °F 19.2 °F 32.0 °F 100% 30.12 in 0.2 mi NNW 23.0 mph - N/A Snow Light Snow
8:55 PM 32.0 °F 19.5 °F 32.0 °F 100% 30.12 in 0.2 mi NNW 21.9 mph - N/A Snow Light Snow
9:15 PM 32.0 °F 19.5 °F 32.0 °F 100% 30.12 in 0.2 mi NNW 21.9 mph - N/A Snow Light Snow
9:35 PM 32.0 °F 18.9 °F 32.0 °F 100% 30.11 in 0.2 mi NNW 24.2 mph - N/A Snow Light Snow
9:55 PM 32.0 °F 19.5 °F 32.0 °F 100% 30.11 in 0.2 mi NW 21.9 mph - N/A Snow Heavy Snow
10:15 PM 32.0 °F 18.9 °F 32.0 °F 100% 30.11 in 0.2 mi NNW 24.2 mph - N/A Snow Heavy Snow
10:35 PM 32.0 °F 19.5 °F 32.0 °F 100% 30.11 in 0.2 mi NNW 21.9 mph - N/A Snow Heavy Snow
10:55 PM 32.0 °F 20.1 °F 32.0 °F 100% 30.12 in 0.2 mi NNW 19.6 mph - N/A Snow Heavy Snow
11:15 PM 30.2 °F 17.4 °F 30.2 °F 100% 30.12 in - NW 20.7 mph - N/A   Overcast
11:35 PM 30.2 °F 17.1 °F 30.2 °F 100% 30.11 in - NW 21.9 mph - N/A   Overcast
11:55 PM 30.2 °F 16.2 °F 30.2 °F 100% 30.10 in - NW 25.3 mph - N/A   Overcast